Location: 3 Angels Observatory
(30.5437°N, 88.5068°W)
Time: 11:26:48
(UTC-05:00)

Oscar 19 - Visible Passes

Search period start: 23 May 2015 00:00
Search period end: 02 June 2015 00:00
Orbit: 775 x 790 km, 98.5° (Epoch: 22 May)

Date Brightness Start Highest point End Pass type
(mag) Time Alt. Az. Time Alt. Az. Time Alt. Az.
23 May 12.1 02:08:23 10° NNE 02:11:17 33° NE 02:11:17 33° NE visible
23 May 12.8 03:50:06 10° NW 03:51:51 12° WNW 03:51:51 12° WNW visible
24 May 12.8 01:37:19 10° NE 01:39:14 19° NE 01:39:14 19° NE visible
24 May 12.1 03:16:37 10° NNW 03:19:48 24° NW 03:19:48 24° NW visible
25 May 11.7 02:44:19 10° N 02:47:45 39° NNW 02:47:45 39° NNW visible
26 May 12.0 02:12:34 10° NNE 02:15:42 37° NNE 02:15:42 37° NNE visible
26 May 12.8 03:54:56 10° NW 03:56:16 11° WNW 03:56:16 11° WNW visible
27 May 12.7 01:41:25 10° NE 01:43:38 22° NE 01:43:38 22° NE visible
27 May 12.2 03:21:00 10° NNW 03:24:13 23° NW 03:24:13 23° NW visible
28 May 13.3 01:11:26 10° ENE 01:11:35 10° ENE 01:11:35 10° ENE visible
28 May 11.6 02:48:35 10° N 02:52:09 39° NNW 02:52:09 39° NNW visible
29 May 11.8 02:16:47 10° NNE 02:20:05 40° NNE 02:20:05 40° NNE visible
30 May 12.5 01:45:32 10° NNE 01:48:02 24° NE 01:48:02 24° NE visible
30 May 12.3 03:25:23 10° NNW 03:28:36 21° WNW 03:28:36 21° WNW visible
31 May 13.2 01:15:17 10° ENE 01:15:58 12° ENE 01:15:58 12° ENE visible
31 May 11.6 02:52:52 10° N 02:56:32 38° NW 02:56:32 38° NW visible
01 Jun 11.6 02:21:00 10° NNE 02:24:28 44° NNE 02:24:28 44° NNE visible
